UT4UGW-13 Weather Reports


Display with metric or nautical units.
time (UTC)temp
F
wind
direction
speed
MPH
gust
MPH
rain 1hr
in
rain 24hr
in
rain mn
in
humidity
%
barometer
mb
20201024200452 55 0.0 0.0 0.00 0.00 0.00 985.0
20201024195419 55 0.0 0.0 0.00 0.00 0.00 984.9
20201024194354 56 0.0 0.0 0.00 0.00 0.00 984.8
20201024193317 56 0.0 0.0 0.00 0.00 0.00 984.7
20201024192318 56 0.0 0.0 0.00 0.00 0.00 984.8
20201024191248 56 0.0 0.0 0.00 0.00 0.00 984.8
20201024190251 56 0.0 0.0 0.00 0.00 0.00 984.9
20201024185217 56 0.0 0.0 0.00 0.00 0.00 984.9
20201024184148 57 0.0 0.0 0.00 0.00 0.00 984.9
20201024183153 57 0.0 0.0 0.00 0.00 0.00 984.9
20201024182117 57 0.0 0.0 0.00 0.00 0.00 984.8
20201024181048 57 0.0 0.0 0.00 0.00 0.00 984.6
20201024180025 57 0.0 0.0 0.00 0.00 0.00 984.4
20201024175018 57 0.0 0.0 0.00 0.00 0.00 984.5
20201024173948 58 0.0 0.0 0.00 0.00 0.00 984.5
20201024172917 58 0.0 0.0 0.00 0.00 0.00 984.5
20201024171848 58 0.0 0.0 0.00 0.00 0.00 984.5
20201024170847 58 0.0 0.0 0.00 0.00 0.00 984.5
20201024165818 58 0.0 0.0 0.00 0.00 0.00 984.3
20201024164747 57 0.0 0.0 0.00 0.00 0.00 984.1
20201024163718 57 0.0 0.0 0.00 0.00 0.00 984.1
20201024161647 58 0.0 0.0 0.00 0.00 0.00 984.1
20201024160618 58 0.0 0.0 0.00 0.00 0.00 984.2
20201024155619 59 0.0 0.0 0.00 0.00 0.00 984.1
20201024154617 59 0.0 0.0 0.00 0.00 0.00 984.0
20201024153617 59 0.0 0.0 0.00 0.00 0.00 983.9
20201024152617 59 0.0 0.0 0.00 0.00 0.00 983.9
20201024151621 59 0.0 0.0 0.00 0.00 0.00 983.8
20201024150617 59 0.0 0.0 0.00 0.00 0.00 983.8
20201024145617 59 0.0 0.0 0.00 0.00 0.00 983.7
20201024144547 60 0.0 0.0 0.00 0.00 0.00 983.8
20201024143550 60 0.0 0.0 0.00 0.00 0.00 983.9
20201024142553 61 0.0 0.0 0.00 0.00 0.00 983.9
20201024141518 61 0.0 0.0 0.00 0.00 0.00 983.9
20201024140447 62 0.0 0.0 0.00 0.00 0.00 983.9
20201024135432 62 0.0 0.0 0.00 0.00 0.00 983.8
20201024134418 62 0.0 0.0 0.00 0.00 0.00 983.9
20201024133349 62 0.0 0.0 0.00 0.00 0.00 983.8
20201024132317 64 0.0 0.0 0.00 0.00 0.00 983.7
20201024131323 64 0.0 0.0 0.00 0.00 0.00 983.8
20201024130251 64 0.0 0.0 0.00 0.00 0.00 983.8
20201024125247 66 0.0 0.0 0.00 0.00 0.00 983.8
20201024124218 72 0.0 0.0 0.00 0.00 0.00 983.8
20201024123217 64 0.0 0.0 0.00 0.00 0.00 983.8
20201024122147 65 0.0 0.0 0.00 0.00 0.00 983.8
20201024121117 65 0.0 0.0 0.00 0.00 0.00 983.7
20201024120048 66 0.0 0.0 0.00 0.00 0.00 983.9
20201024115022 77 0.0 0.0 0.00 0.00 0.00 983.8
20201024113947 70 0.0 0.0 0.00 0.00 0.00 984.0
20201024112947 65 0.0 0.0 0.00 0.00 0.00 984.0
20201024111917 64 0.0 0.0 0.00 0.00 0.00 984.0
20201024110847 67 0.0 0.0 0.00 0.00 0.00 983.9
20201024105817 70 0.0 0.0 0.00 0.00 0.00 984.1
20201024104816 68 0.0 0.0 0.00 0.00 0.00 984.1
20201024103818 73 0.0 0.0 0.00 0.00 0.00 984.3
20201024102749 65 0.0 0.0 0.00 0.00 0.00 984.2
20201024101748 66 0.0 0.0 0.00 0.00 0.00 984.3
20201024100717 64 0.0 0.0 0.00 0.00 0.00 984.5
20201024095648 65 0.0 0.0 0.00 0.00 0.00 984.5
20201024094650 65 0.0 0.0 0.00 0.00 0.00 984.4
20201024093617 62 0.0 0.0 0.00 0.00 0.00 984.6
20201024092548 61 0.0 0.0 0.00 0.00 0.00 984.6
20201024091547 62 0.0 0.0 0.00 0.00 0.00 984.7
20201024090521 63 0.0 0.0 0.00 0.00 0.00 984.8
20201024085447 61 0.0 0.0 0.00 0.00 0.00 984.6
20201024084447 59 0.0 0.0 0.00 0.00 0.00 984.7
20201024083423 57 0.0 0.0 0.00 0.00 0.00 984.7
20201024082424 58 0.0 0.0 0.00 0.00 0.00 984.7
20201024081347 57 0.0 0.0 0.00 0.00 0.00 984.7
20201024080318 57 0.0 0.0 0.00 0.00 0.00 984.9
20201024075246 57 0.0 0.0 0.00 0.00 0.00 985.1
20201024074250 56 0.0 0.0 0.00 0.00 0.00 985.1
20201024073216 58 0.0 0.0 0.00 0.00 0.00 985.0
20201024072149 57 0.0 0.0 0.00 0.00 0.00 985.0
20201024071147 57 0.0 0.0 0.00 0.00 0.00 985.1
20201024070117 57 0.0 0.0 0.00 0.00 0.00 985.0
20201024065116 54 0.0 0.0 0.00 0.00 0.00 985.2
20201024064117 54 0.0 0.0 0.00 0.00 0.00 985.3
20201024063048 55 0.0 0.0 0.00 0.00 0.00 985.3
20201024062018 54 0.0 0.0 0.00 0.00 0.00 985.4
20201024061017 54 0.0 0.0 0.00 0.00 0.00 985.1
20201024055946 53 0.0 0.0 0.00 0.00 0.00 985.1
20201024054916 53 0.0 0.0 0.00 0.00 0.00 985.2
20201024053847 53 0.0 0.0 0.00 0.00 0.00 985.1
20201024052847 54 0.0 0.0 0.00 0.00 0.00 985.0
20201024051846 54 0.0 0.0 0.00 0.00 0.00 985.0
20201024050847 53 0.0 0.0 0.00 0.00 0.00 984.9
20201024045817 53 0.0 0.0 0.00 0.00 0.00 984.8
20201024044748 53 0.0 0.0 0.00 0.00 0.00 984.8
20201024043749 53 0.0 0.0 0.00 0.00 0.00 984.7
20201024042716 53 0.0 0.0 0.00 0.00 0.00 984.9
20201024041647 53 0.0 0.0 0.00 0.00 0.00 984.9
20201024040647 53 0.0 0.0 0.00 0.00 0.00 985.0
20201024035617 53 0.0 0.0 0.00 0.00 0.00 985.1
20201024034546 54 0.0 0.0 0.00 0.00 0.00 984.9
20201024033518 54 0.0 0.0 0.00 0.00 0.00 984.9
20201024032446 55 0.0 0.0 0.00 0.00 0.00 984.9
20201024031416 55 0.0 0.0 0.00 0.00 0.00 985.0
20201024030347 55 0.0 0.0 0.00 0.00 0.00 984.8
20201024025348 55 0.0 0.0 0.00 0.00 0.00 984.7
20201024024316 54 0.0 0.0 0.00 0.00 0.00 984.8
20201024023247 54 0.0 0.0 0.00 0.00 0.00 984.9
20201024022227 55 0.0 0.0 0.00 0.00 0.00 985.0
20201024021147 55 0.0 0.0 0.00 0.00 0.00 985.0
20201024020117 55 0.0 0.0 0.00 0.00 0.00 985.0
20201024015116 55 0.0 0.0 0.00 0.00 0.00 984.9
20201024014046 55 0.0 0.0 0.00 0.00 0.00 985.0
20201024013046 54 0.0 0.0 0.00 0.00 0.00 985.1
20201024012024 54 0.0 0.0 0.00 0.00 0.00 985.1
20201024010946 54 0.0 0.0 0.00 0.00 0.00 985.1
20201024005946 54 0.0 0.0 0.00 0.00 0.00 985.0
20201024004916 54 0.0 0.0 0.00 0.00 0.00 985.3
20201024003847 54 0.0 0.0 0.00 0.00 0.00 985.3
20201024002819 54 0.0 0.0 0.00 0.00 0.00 985.4
20201024001746 55 0.0 0.0 0.00 0.00 0.00 985.3
20201024000717 55 0.0 0.0 0.00 0.00 0.00 985.2
20201023235650 55 0.0 0.0 0.00 0.00 0.00 985.2
20201023234646 55 0.0 0.0 0.00 0.00 0.00 985.2
20201023233646 55 0.0 0.0 0.00 0.00 0.00 985.4
20201023232616 55 0.0 0.0 0.00 0.00 0.00 985.4
20201023231616 55 0.0 0.0 0.00 0.00 0.00 985.3
20201023230550 55 0.0 0.0 0.00 0.00 0.00 985.3
20201023225549 55 0.0 0.0 0.00 0.00 0.00 985.4
20201023224548 56 0.0 0.0 0.00 0.00 0.00 985.4
20201023223555 56 0.0 0.0 0.00 0.00 0.00 985.3
20201023222516 56 0.0 0.0 0.00 0.00 0.00 985.2
20201023221523 56 0.0 0.0 0.00 0.00 0.00 985.2
20201023220446 56 0.0 0.0 0.00 0.00 0.00 985.2
20201023215449 56 0.0 0.0 0.00 0.00 0.00 985.2
20201023214416 56 0.0 0.0 0.00 0.00 0.00 985.4
20201023213416 56 0.0 0.0 0.00 0.00 0.00 985.6
20201023212416 56 0.0 0.0 0.00 0.00 0.00 985.8
20201023211347 56 0.0 0.0 0.00 0.00 0.00 985.7
20201023210317 57 0.0 0.0 0.00 0.00 0.00 985.6
20201023205246 57 0.0 0.0 0.00 0.00 0.00 985.7
20201023204216 57 0.0 0.0 0.00 0.00 0.00 985.7
20201023203217 57 0.0 0.0 0.00 0.00 0.00 985.7
20201023202148 57 0.0 0.0 0.00 0.00 0.00 985.8
20201023201117 57 0.0 0.0 0.00 0.00 0.00 985.8